Tiempo cada hora Muravnya

Hoy, 21 Octubre, Miércoles

Tiempo Temperatura Precipitaciones Viento Presión Humedad
00:00 +4°C° 0 mm 3 mps 749 mmHg 84%
01:00 +4°C° 0 mm 3 mps 749 mmHg 84%
02:00 +4°C° 0 mm 3 mps 748 mmHg 84%
03:00 +4°C° 0 mm 3 mps 748 mmHg 81%
04:00 +4°C° 0 mm 4 mps 747 mmHg 79%
05:00 +4°C° 0 mm 4 mps 747 mmHg 76%
06:00 +4°C° 0 mm 4 mps 747 mmHg 74%
07:00 +5°C° 0 mm 4 mps 746 mmHg 73%
08:00 +5°C° 0 mm 5 mps 746 mmHg 71%
09:00 +6°C° 0 mm 5 mps 746 mmHg 69%
10:00 +7°C° 0 mm 5 mps 746 mmHg 68%
11:00 +8°C° 0 mm 5 mps 746 mmHg 66%
12:00 +9°C° 0 mm 5 mps 745 mmHg 65%
13:00 +10°C° 0 mm 4 mps 745 mmHg 64%
14:00 +11°C° 0 mm 4 mps 745 mmHg 63%
15:00 +10°C° 0 mm 4 mps 744 mmHg 66%
16:00 +10°C° 0 mm 3 mps 744 mmHg 69%
17:00 +9°C° 0 mm 3 mps 743 mmHg 71%
18:00 +9°C° 0 mm 3 mps 744 mmHg 73%
19:00 +8°C° 0 mm 3 mps 744 mmHg 74%
20:00 +8°C° 0 mm 3 mps 744 mmHg 75%
21:00 +7°C° 0 mm 3 mps 744 mmHg 74%
22:00 +7°C° 0 mm 3 mps 744 mmHg 73%
23:00 +7°C° 0 mm 3 mps 744 mmHg 72%

Mañana, 22 Octubre, Jueves

Tiempo Temperatura Precipitaciones Viento Presión Humedad
00:00 +7°C° 0 mm 3 mps 744 mmHg 72%
01:00 +7°C° 0 mm 3 mps 744 mmHg 71%
02:00 +7°C° 0 mm 3 mps 744 mmHg 71%
03:00 +7°C° 0 mm 3 mps 744 mmHg 71%
04:00 +7°C° 0 mm 3 mps 744 mmHg 71%
05:00 +7°C° 0 mm 3 mps 743 mmHg 71%
06:00 +7°C° 0 mm 3 mps 743 mmHg 70%
07:00 +7°C° 0 mm 3 mps 744 mmHg 69%
08:00 +7°C° 0 mm 4 mps 744 mmHg 69%
09:00 +8°C° 0 mm 4 mps 744 mmHg 65%
10:00 +10°C° 0 mm 5 mps 744 mmHg 62%
11:00 +13°C° 0 mm 5 mps 744 mmHg 58%
12:00 +14°C° 0 mm 5 mps 744 mmHg 59%
13:00 +14°C° 0 mm 5 mps 744 mmHg 59%
14:00 +15°C° 0 mm 5 mps 744 mmHg 60%
15:00 +14°C° 0 mm 4 mps 743 mmHg 64%
16:00 +13°C° 0 mm 4 mps 743 mmHg 69%
17:00 +13°C° 0 mm 3 mps 743 mmHg 73%
18:00 +12°C° 0 mm 3 mps 743 mmHg 75%
19:00 +12°C° 0 mm 3 mps 743 mmHg 76%
20:00 +11°C° 0 mm 3 mps 743 mmHg 78%
21:00 +11°C° 0 mm 3 mps 743 mmHg 78%
22:00 +11°C° 0 mm 3 mps 743 mmHg 78%
23:00 +11°C° 0 mm 3 mps 743 mmHg 77%

Pasado mañana, 23 Octubre, Viernes

Tiempo Temperatura Precipitaciones Viento Presión Humedad
00:00 +10°C° 0 mm 3 mps 743 mmHg 77%
01:00 +10°C° 0 mm 3 mps 743 mmHg 77%
02:00 +9°C° 0 mm 3 mps 743 mmHg 77%
03:00 +9°C° 0 mm 3 mps 743 mmHg 79%
04:00 +9°C° 0 mm 3 mps 743 mmHg 80%
05:00 +8°C° 0 mm 3 mps 743 mmHg 81%
06:00 +9°C° 0 mm 3 mps 742 mmHg 81%
07:00 +9°C° 0 mm 3 mps 742 mmHg 81%
08:00 +9°C° 0 mm 3 mps 742 mmHg 80%
09:00 +11°C° 0 mm 3 mps 742 mmHg 76%
10:00 +12°C° 0 mm 3 mps 742 mmHg 71%
11:00 +14°C° 0 mm 3 mps 742 mmHg 66%
12:00 +14°C° 0 mm 3 mps 741 mmHg 64%
13:00 +16°C° 0 mm 3 mps 741 mmHg 62%
14:00 +17°C° 0 mm 3 mps 741 mmHg 60%
15:00 +16°C° 0 mm 3 mps 740 mmHg 65%
16:00 +15°C° 0 mm 2 mps 740 mmHg 69%
17:00 +14°C° 0 mm 2 mps 740 mmHg 74%
18:00 +13°C° 0 mm 2 mps 740 mmHg 77%
19:00 +12°C° 0 mm 2 mps 740 mmHg 79%
20:00 +12°C° 0 mm 2 mps 740 mmHg 82%
21:00 +12°C° 0 mm 2 mps 740 mmHg 84%
22:00 +10°C° 0 mm 2 mps 740 mmHg 85%
23:00 +10°C° 0 mm 2 mps 740 mmHg 87%

24 Octubre, Sábado

Tiempo Temperatura Precipitaciones Viento Presión Humedad
00:00 +10°C° 0 mm 2 mps 740 mmHg 89%
01:00 +10°C° 0 mm 2 mps 739 mmHg 91%
02:00 +9°C° 0 mm 2 mps 739 mmHg 93%
03:00 +9°C° 0 mm 2 mps 739 mmHg 94%
04:00 +9°C° 0 mm 2 mps 739 mmHg 94%
05:00 +10°C° 0 mm 1 mps 739 mmHg 95%
06:00 +10°C° 0 mm 1 mps 739 mmHg 94%
07:00 +10°C° 0 mm 2 mps 739 mmHg 93%
08:00 +10°C° 0 mm 2 mps 739 mmHg 92%
09:00 +10°C° 0.1 mm 2 mps 739 mmHg 91%
10:00 +12°C° 0.1 mm 2 mps 739 mmHg 90%
11:00 +12°C° 0.1 mm 2 mps 738 mmHg 90%
12:00 +12°C° 0 mm 2 mps 738 mmHg 88%
13:00 +13°C° 0 mm 2 mps 738 mmHg 87%
14:00 +13°C° 0 mm 2 mps 737 mmHg 85%
15:00 +12°C° 0 mm 3 mps 737 mmHg 84%
16:00 +12°C° 0 mm 4 mps 737 mmHg 82%
17:00 +12°C° 0 mm 4 mps 737 mmHg 81%
18:00 +12°C° 0.5 mm 5 mps 737 mmHg 84%
19:00 +10°C° 0.5 mm 5 mps 737 mmHg 87%
20:00 +10°C° 0.5 mm 6 mps 737 mmHg 90%
21:00 +10°C° 0.1 mm 6 mps 738 mmHg 88%
22:00 +9°C° 0.1 mm 6 mps 738 mmHg 86%
23:00 +8°C° 0.1 mm 7 mps 738 mmHg 83%

25 Octubre, Domingo

Tiempo Temperatura Precipitaciones Viento Presión Humedad
00:00 +8°C° 0.2 mm 7 mps 738 mmHg 83%
01:00 +6°C° 0.2 mm 8 mps 738 mmHg 83%
02:00 +6°C° 0.2 mm 8 mps 739 mmHg 82%
03:00 +6°C° 0.1 mm 8 mps 739 mmHg 82%
04:00 +6°C° 0.1 mm 9 mps 739 mmHg 81%
05:00 +5°C° 0.1 mm 9 mps 739 mmHg 80%
06:00 +5°C° 0 mm 9 mps 739 mmHg 80%
07:00 +5°C° 0 mm 8 mps 739 mmHg 80%
08:00 +6°C° 0 mm 8 mps 739 mmHg 80%
09:00 +6°C° 0 mm 8 mps 740 mmHg 79%
10:00 +6°C° 0 mm 8 mps 740 mmHg 78%
11:00 +6°C° 0 mm 8 mps 740 mmHg 78%
12:00 +6°C° 0 mm 8 mps 741 mmHg 77%
13:00 +6°C° 0 mm 8 mps 741 mmHg 76%
14:00 +6°C° 0 mm 8 mps 741 mmHg 76%
15:00 +6°C° 0 mm 7 mps 741 mmHg 76%
16:00 +6°C° 0 mm 7 mps 742 mmHg 76%
17:00 +5°C° 0 mm 6 mps 742 mmHg 76%
18:00 +5°C° 0 mm 6 mps 742 mmHg 78%
19:00 +6°C° 0 mm 5 mps 742 mmHg 79%
20:00 +5°C° 0 mm 5 mps 743 mmHg 81%
21:00 +5°C° 0 mm 4 mps 743 mmHg 83%
22:00 +5°C° 0 mm 4 mps 743 mmHg 85%
23:00 +4°C° 0 mm 4 mps 744 mmHg 87%

26 Octubre, Lunes

Tiempo Temperatura Precipitaciones Viento Presión Humedad
00:00 +4°C° 0 mm 3 mps 744 mmHg 89%
01:00 +4°C° 0 mm 3 mps 744 mmHg 90%
02:00 +3°C° 0 mm 3 mps 744 mmHg 92%
03:00 +3°C° 0 mm 3 mps 744 mmHg 93%
04:00 +4°C° 0 mm 2 mps 745 mmHg 94%
05:00 +4°C° 0 mm 2 mps 745 mmHg 95%
06:00 +4°C° 0 mm 2 mps 745 mmHg 95%
07:00 +4°C° 0 mm 2 mps 745 mmHg 95%
08:00 +4°C° 0 mm 2 mps 746 mmHg 95%
09:00 +6°C° 0 mm 2 mps 746 mmHg 89%
10:00 +8°C° 0 mm 2 mps 746 mmHg 83%
11:00 +10°C° 0 mm 1 mps 746 mmHg 77%
12:00 +11°C° 0 mm 1 mps 746 mmHg 74%
13:00 +12°C° 0 mm 1 mps 746 mmHg 71%
14:00 +12°C° 0 mm 1 mps 746 mmHg 68%
15:00 +11°C° 0 mm 1 mps 746 mmHg 74%
16:00 +10°C° 0 mm 1 mps 746 mmHg 79%
17:00 +8°C° 0 mm 2 mps 746 mmHg 84%
18:00 +7°C° 0 mm 2 mps 746 mmHg 86%
19:00 +7°C° 0 mm 2 mps 746 mmHg 87%
20:00 +6°C° 0 mm 2 mps 746 mmHg 89%
21:00 +6°C° 0 mm 2 mps 747 mmHg 89%
22:00 +5°C° 0 mm 2 mps 747 mmHg 89%
23:00 +5°C° 0 mm 2 mps 747 mmHg 89%

27 Octubre, Martes

Tiempo Temperatura Precipitaciones Viento Presión Humedad
00:00 +5°C° 0 mm 2 mps 748 mmHg 90%
01:00 +4°C° 0 mm 2 mps 748 mmHg 91%
02:00 +4°C° 0 mm 2 mps 748 mmHg 92%
03:00 +4°C° 0 mm 2 mps 748 mmHg 92%
04:00 +4°C° 0 mm 2 mps 748 mmHg 93%
05:00 +3°C° 0 mm 2 mps 748 mmHg 93%
06:00 +4°C° 0 mm 2 mps 748 mmHg 92%
07:00 +4°C° 0 mm 2 mps 749 mmHg 92%
08:00 +4°C° 0 mm 2 mps 749 mmHg 91%
09:00 +5°C° 0 mm 3 mps 749 mmHg 84%
10:00 +7°C° 0 mm 3 mps 749 mmHg 77%
11:00 +9°C° 0 mm 3 mps 749 mmHg 69%
12:00 +10°C° 0 mm 3 mps 749 mmHg 65%
13:00 +10°C° 0 mm 3 mps 749 mmHg 62%
14:00 +11°C° 0 mm 3 mps 749 mmHg 58%
15:00 +10°C° 0 mm 3 mps 749 mmHg 62%
16:00 +9°C° 0 mm 3 mps 749 mmHg 66%
17:00 +7°C° 0 mm 3 mps 749 mmHg 71%
18:00 +7°C° 0 mm 3 mps 749 mmHg 71%
19:00 +5°C° 0 mm 3 mps 749 mmHg 70%
20:00 +4°C° 0 mm 3 mps 749 mmHg 70%
21:00 +4°C° 0 mm 3 mps 750 mmHg 70%
22:00 +3°C° 0 mm 3 mps 750 mmHg 69%
23:00 +3°C° 0 mm 3 mps 750 mmHg 68%
Mostrar más

Necesitamos Su Consentimiento

Meteoprog y nuestros Proveedores de Servicios pueden almacenar y acceder a sus datos personales como cookies, identificadores de dispositivo u otras tecnologías similares de su dispositivo y procesar dichos datos para personalizar contenido y anuncios, además de ofrecer funciones de redes sociales y analizar el tráfico.

  • Almacenar y/o acceder a información en su dispositivo

    Se puede almacenar o acceder a cookies, identificadores de dispositivo u otra información de su dispositivo para los fines anteriormente indicados.

  • Anuncios y contenido personalizados, medición de anuncios y contenido, percepciones del público, y desarrollo de productos

    Los anuncios y el contenido pueden personalizarse en base a su perfil. Se pueden añadir más datos para personalizar mejor los anuncios y contenidos. Se puede medir el rendimiento de los anuncios y contenidos. Se puede obtener la percepción sobre el público que ha visto los anuncios y contenidos. Dichos datos pueden usarse para desarrollar o mejorar la experiencia del usuario, sistemas y software.

Al hacer clic en ‘Estoy De Acuerdo’ usted permitirá el uso de las cookies, identificadores de dispositivo, balizas web u otras tecnologías similares indicadas. Su configuración puede cambiarse desde el navegador de su dispositivo.

Para ciertos fines, los intereses legítimos pueden ser considerados por encima del consentimiento. Puede leer más sobre ello en nuestra Política de Privacidad y Cookies.